Location: ??????
(38.3184°N, 23.6932°E)
Time: 02:27:27
(UTC+00:00)

H-2A R/B - Pass Details

Date: 16 October 2021
Orbit: 577 x 654 km, 98.5° (Epoch: 04 December)

Event Time Altitude Azimuth Distance (km) Brightness Sun altitude
Rises 18:14:57 0° 356° (N) 2,800 5.6 -29.9°
Reaches altitude 10° 18:17:32 10° 340° (NNW) 1,899 4.9 -30.4°
Maximum altitude 18:20:32 20° 293° (WNW) 1,363 4.5 -31.0°
Drops below altitude 10° 18:23:34 10° 245° (WSW) 1,905 5.1 -31.5°
Sets 18:26:10 0° 229° (SW) 2,811 5.9 -32.0°
